• In Austria
  • List of Countries
  • For 7 days
  • Water Temperature
  • Satellite Maps
  • Weather Map
  • News
  • Weather Widgets
  • user-avatar
    Login

    Hourly Weather Vidin

    Today, 13 December, Wednesday

    Time Temperature Precipitation Wind Pressure Humidity
    00:00 +9°C° 0 mm 1 mps 760 mmHg 81%
    01:00 +9°C° 0 mm 1 mps 760 mmHg 82%
    02:00 +8°C° 0 mm 1 mps 760 mmHg 82%
    03:00 +8°C° 0 mm 1 mps 760 mmHg 82%
    04:00 +8°C° 0 mm 1 mps 760 mmHg 82%
    05:00 +8°C° 0 mm 1 mps 760 mmHg 83%
    06:00 +8°C° 0 mm 1 mps 760 mmHg 83%
    07:00 +8°C° 0 mm 1 mps 760 mmHg 83%
    08:00 +8°C° 0 mm 1 mps 760 mmHg 82%
    09:00 +9°C° 0 mm 1 mps 760 mmHg 78%
    10:00 +11°C° 0 mm 1 mps 760 mmHg 73%
    11:00 +12°C° 0 mm 1 mps 760 mmHg 69%
    12:00 +13°C° 0 mm 1 mps 759 mmHg 67%
    13:00 +14°C° 0 mm 1 mps 759 mmHg 65%
    14:00 +14°C° 0 mm 1 mps 758 mmHg 62%
    15:00 +13°C° 0 mm 1 mps 759 mmHg 66%
    16:00 +12°C° 0 mm 1 mps 759 mmHg 70%
    17:00 +12°C° 0 mm 1 mps 759 mmHg 74%
    18:00 +11°C° 0 mm 1 mps 759 mmHg 76%
    19:00 +11°C° 0 mm 1 mps 758 mmHg 78%
    20:00 +10°C° 0 mm 1 mps 758 mmHg 81%
    21:00 +9°C° 0.2 mm 2 mps 758 mmHg 83%
    22:00 +8°C° 0.2 mm 2 mps 758 mmHg 84%
    23:00 +8°C° 0.2 mm 2 mps 758 mmHg 86%

    Tomorrow, 14 December, Thursday

    Time Temperature Precipitation Wind Pressure Humidity
    00:00 +8°C° 0.4 mm 2 mps 757 mmHg 87%
    01:00 +7°C° 0.4 mm 2 mps 757 mmHg 87%
    02:00 +7°C° 0.4 mm 2 mps 757 mmHg 88%
    03:00 +7°C° 0.1 mm 2 mps 757 mmHg 88%
    04:00 +7°C° 0.1 mm 2 mps 757 mmHg 88%
    05:00 +6°C° 0.1 mm 2 mps 756 mmHg 88%
    06:00 +6°C° 0 mm 2 mps 756 mmHg 88%
    07:00 +6°C° 0 mm 2 mps 757 mmHg 88%
    08:00 +6°C° 0 mm 2 mps 757 mmHg 88%
    09:00 +7°C° 0 mm 2 mps 757 mmHg 82%
    10:00 +8°C° 0 mm 2 mps 757 mmHg 77%
    11:00 +10°C° 0 mm 2 mps 757 mmHg 71%
    12:00 +12°C° 0 mm 2 mps 756 mmHg 67%
    13:00 +13°C° 0 mm 2 mps 756 mmHg 64%
    14:00 +14°C° 0 mm 2 mps 756 mmHg 60%
    15:00 +13°C° 0 mm 2 mps 756 mmHg 64%
    16:00 +12°C° 0 mm 2 mps 756 mmHg 68%
    17:00 +10°C° 0 mm 2 mps 756 mmHg 72%
    18:00 +10°C° 0 mm 2 mps 756 mmHg 72%
    19:00 +9°C° 0 mm 2 mps 756 mmHg 73%
    20:00 +9°C° 0 mm 2 mps 757 mmHg 74%
    21:00 +9°C° 0 mm 2 mps 757 mmHg 74%
    22:00 +9°C° 0 mm 2 mps 757 mmHg 74%
    23:00 +8°C° 0 mm 2 mps 757 mmHg 74%

    Day after tomorrow, 15 December, Friday

    Time Temperature Precipitation Wind Pressure Humidity
    00:00 +8°C° 0 mm 2 mps 756 mmHg 75%
    01:00 +8°C° 0 mm 2 mps 756 mmHg 75%
    02:00 +7°C° 0 mm 2 mps 756 mmHg 75%
    03:00 +7°C° 0 mm 2 mps 756 mmHg 75%
    04:00 +7°C° 0 mm 2 mps 755 mmHg 74%
    05:00 +7°C° 0 mm 2 mps 755 mmHg 74%
    06:00 +7°C° 0 mm 2 mps 755 mmHg 74%
    07:00 +7°C° 0 mm 2 mps 755 mmHg 75%
    08:00 +7°C° 0 mm 2 mps 755 mmHg 75%
    09:00 +8°C° 0 mm 2 mps 755 mmHg 72%
    10:00 +9°C° 0 mm 2 mps 755 mmHg 68%
    11:00 +10°C° 0 mm 2 mps 754 mmHg 64%
    12:00 +10°C° 0.5 mm 2 mps 754 mmHg 67%
    13:00 +10°C° 0.5 mm 2 mps 753 mmHg 69%
    14:00 +10°C° 0.5 mm 2 mps 752 mmHg 72%
    15:00 +9°C° 0.4 mm 2 mps 752 mmHg 76%
    16:00 +9°C° 0.4 mm 2 mps 752 mmHg 79%
    17:00 +8°C° 0.4 mm 2 mps 752 mmHg 83%
    18:00 +8°C° 0 mm 2 mps 752 mmHg 83%
    19:00 +8°C° 0 mm 2 mps 751 mmHg 84%
    20:00 +8°C° 0 mm 2 mps 751 mmHg 84%
    21:00 +8°C° 0 mm 2 mps 751 mmHg 84%
    22:00 +8°C° 0 mm 2 mps 750 mmHg 83%
    23:00 +8°C° 0 mm 2 mps 750 mmHg 83%

    16 December, Saturday

    Time Temperature Precipitation Wind Pressure Humidity
    00:00 +8°C° 0 mm 2 mps 750 mmHg 82%
    01:00 +8°C° 0 mm 2 mps 750 mmHg 82%
    02:00 +8°C° 0 mm 2 mps 750 mmHg 81%
    03:00 +8°C° 0 mm 2 mps 750 mmHg 81%
    04:00 +8°C° 0 mm 2 mps 750 mmHg 81%
    05:00 +8°C° 0 mm 2 mps 750 mmHg 81%
    06:00 +8°C° 0.3 mm 2 mps 751 mmHg 83%
    07:00 +8°C° 0.3 mm 2 mps 752 mmHg 85%
    08:00 +8°C° 0.3 mm 3 mps 752 mmHg 88%
    09:00 +8°C° 0.7 mm 3 mps 753 mmHg 87%
    10:00 +8°C° 0.7 mm 3 mps 753 mmHg 87%
    11:00 +8°C° 0.7 mm 3 mps 754 mmHg 86%
    12:00 +8°C° 0.3 mm 3 mps 754 mmHg 84%
    13:00 +8°C° 0.3 mm 3 mps 754 mmHg 81%
    14:00 +8°C° 0.3 mm 3 mps 755 mmHg 79%
    15:00 +8°C° 0.2 mm 2 mps 755 mmHg 79%
    16:00 +8°C° 0.2 mm 2 mps 755 mmHg 80%
    17:00 +7°C° 0.2 mm 2 mps 755 mmHg 80%
    18:00 +7°C° 0.2 mm 2 mps 756 mmHg 81%
    19:00 +7°C° 0.2 mm 2 mps 756 mmHg 82%
    20:00 +8°C° 0.2 mm 1 mps 756 mmHg 82%
    21:00 +8°C° 0.4 mm 1 mps 757 mmHg 83%
    22:00 +7°C° 0.4 mm 1 mps 757 mmHg 84%
    23:00 +7°C° 0.4 mm 1 mps 757 mmHg 84%

    17 December, Sunday

    Time Temperature Precipitation Wind Pressure Humidity
    00:00 +7°C° 0.5 mm 1 mps 757 mmHg 84%
    01:00 +6°C° 0.5 mm 2 mps 757 mmHg 84%
    02:00 +6°C° 0.5 mm 2 mps 757 mmHg 83%
    03:00 +6°C° 0.6 mm 2 mps 757 mmHg 83%
    04:00 +5°C° 0.6 mm 2 mps 757 mmHg 83%
    05:00 +5°C° 0.6 mm 2 mps 757 mmHg 82%
    06:00 +5°C° 0.4 mm 2 mps 757 mmHg 83%
    07:00 +5°C° 0.4 mm 2 mps 758 mmHg 83%
    08:00 +5°C° 0.4 mm 2 mps 758 mmHg 83%
    09:00 +5°C° 0.1 mm 2 mps 759 mmHg 81%
    10:00 +6°C° 0.1 mm 2 mps 759 mmHg 80%
    11:00 +6°C° 0.1 mm 2 mps 759 mmHg 78%
    12:00 +6°C° 0.1 mm 2 mps 759 mmHg 77%
    13:00 +5°C° 0.1 mm 3 mps 759 mmHg 76%
    14:00 +5°C° 0.1 mm 3 mps 759 mmHg 74%
    15:00 +5°C° 0.1 mm 3 mps 760 mmHg 75%
    16:00 +6°C° 0.1 mm 2 mps 760 mmHg 76%
    17:00 +6°C° 0.1 mm 2 mps 761 mmHg 76%
    18:00 +5°C° 0.1 mm 2 mps 761 mmHg 76%
    19:00 +5°C° 0.1 mm 2 mps 762 mmHg 77%
    20:00 +5°C° 0.1 mm 2 mps 762 mmHg 77%
    21:00 +5°C° 0.3 mm 2 mps 762 mmHg 77%
    22:00 +4°C° 0.3 mm 2 mps 763 mmHg 78%
    23:00 +4°C° 0.3 mm 2 mps 763 mmHg 78%

    18 December, Monday

    Time Temperature Precipitation Wind Pressure Humidity
    00:00 +4°C° 0.4 mm 2 mps 763 mmHg 79%
    01:00 +3°C° 0.4 mm 3 mps 763 mmHg 80%
    02:00 +3°C° 0.4 mm 3 mps 764 mmHg 81%
    03:00 +3°C° 0.5 mm 3 mps 764 mmHg 82%
    04:00 +2°C° 0.5 mm 3 mps 764 mmHg 83%
    05:00 +2°C° 0.5 mm 3 mps 764 mmHg 84%
    06:00 +2°C° 0.4 mm 3 mps 765 mmHg 84%
    07:00 +2°C° 0.4 mm 3 mps 765 mmHg 85%
    08:00 +2°C° 0.4 mm 3 mps 766 mmHg 86%
    09:00 +2°C° 0.4 mm 3 mps 766 mmHg 85%
    10:00 +2°C° 0.4 mm 3 mps 767 mmHg 85%
    11:00 +2°C° 0.4 mm 3 mps 767 mmHg 85%
    12:00 +2°C° 0.2 mm 3 mps 767 mmHg 84%
    13:00 +3°C° 0.2 mm 3 mps 767 mmHg 83%
    14:00 +4°C° 0.2 mm 2 mps 767 mmHg 82%
    15:00 +3°C° 0.1 mm 2 mps 767 mmHg 83%
    16:00 +3°C° 0.1 mm 2 mps 767 mmHg 84%
    17:00 +3°C° 0.1 mm 2 mps 767 mmHg 85%
    18:00 +3°C° 0.1 mm 2 mps 768 mmHg 85%
    19:00 +2°C° 0.1 mm 2 mps 768 mmHg 85%
    20:00 +2°C° 0.1 mm 2 mps 769 mmHg 85%
    21:00 +2°C° 0.1 mm 2 mps 769 mmHg 86%
    22:00 +2°C° 0.1 mm 2 mps 769 mmHg 86%
    23:00 +2°C° 0.1 mm 2 mps 770 mmHg 86%
    Show more